Location: Eschentzwiller
(47.7125°N, 7.3981°E)
Time: 03:17:47
(UTC+00:00)

GENESIS II - Pass Details

Date: 27 October 2020
Orbit: 490 x 536 km, 64.5° (Epoch: 01 December)

Event Time Altitude Azimuth Distance (km) Brightness Sun altitude
Rises 17:08:33 0° 217° (SW) 2,672 8.6 -8.7°
Reaches altitude 10° 17:10:44 10° 218° (SW) 1,788 7.7 -9.1°
Maximum altitude 17:14:46 87° 310° (NW) 544 4.3 -9.7°
Drops below altitude 10° 17:18:49 10° 38° (NE) 1,801 6.5 -10.4°
Enters shadow 17:19:27 - 38° (NE) 2,058 6.8 -10.5°
